"Datum/tijd (MEZT)";"rws verwachting golfhoogte";"rws verwachting deininghoogte";"verwachte waterstand RWS tov. LAT";"NGD Noordberm Maasgeul tov LAT";"Deining 71cm, waarschuwingniveau";"Deining 115cm, Noordberm gesloten";"NGD Noordberm Maasgeul min minimale UKC";"Waterdiepte Noordberm Maasgeul";"Dynamische Diepgang 15.5mtr";"Dynamische Diepgang 16mtr";"Dynamische Diepgang 16.5mtr";"UKC 15.5m +dyn.factoren tov waterdiepte Maasgeul";"UKC 16m +dyn.factoren tov waterdiepte Maasgeul";"UKC 16.5m +dyn.factoren tov waterdiepte Maasgeul";"Minimale UKC"
2024-04-18 01:00;128;21;157.34;-2000;71;115;-1900;-2157.34;-1604.66;-1658.66;-1711.66;395.34;341.34;288.34;100
2024-04-18 01:10;126;21;153.34;-2000;71;115;-1900;-2153.34;-1608.66;-1662.66;-1715.66;391.34;337.34;284.34;100
2024-04-18 01:20;123;21;149.34;-2000;71;115;-1900;-2149.34;-1612.66;-1666.66;-1719.66;387.34;333.34;280.34;100
2024-04-18 01:30;122;21;145.34;-2000;71;115;-1900;-2145.34;-1616.66;-1670.66;-1723.66;383.34;329.34;276.34;100
2024-04-18 01:40;121;21;140.34;-2000;71;115;-1900;-2140.34;-1621.66;-1675.66;-1728.66;378.34;324.34;271.34;100
2024-04-18 01:50;119;20;134.34;-2000;71;115;-1900;-2134.34;-1624.66;-1678.66;-1731.66;375.34;321.34;268.34;100
2024-04-18 02:00;117;20;129.34;-2000;71;115;-1900;-2129.34;-1629.66;-1683.66;-1736.66;370.34;316.34;263.34;100
2024-04-18 02:10;113;20;123.34;-2000;71;115;-1900;-2123.34;-1635.66;-1689.66;-1742.66;364.34;310.34;257.34;100
2024-04-18 02:20;111;21;116.34;-2000;71;115;-1900;-2116.34;-1645.66;-1699.66;-1752.66;354.34;300.34;247.34;100
2024-04-18 02:30;110;21;110.34;-2000;71;115;-1900;-2110.34;-1651.66;-1705.66;-1758.66;348.34;294.34;241.34;100
2024-04-18 02:40;109;22;104.34;-2000;71;115;-1900;-2104.34;-1660.66;-1714.66;-1767.66;339.34;285.34;232.34;100
2024-04-18 02:50;108;23;98.34;-2000;71;115;-1900;-2098.34;-1669.66;-1723.66;-1776.66;330.34;276.34;223.34;100
2024-04-18 03:00;109;22;92.34;-2000;71;115;-1900;-2092.34;-1672.66;-1726.66;-1779.66;327.34;273.34;220.34;100
2024-04-18 03:10;109;22;86.34;-2000;71;115;-1900;-2086.34;-1678.66;-1732.66;-1785.66;321.34;267.34;214.34;100
2024-04-18 03:20;107;21;80.34;-2000;71;115;-1900;-2080.34;-1681.66;-1735.66;-1788.66;318.34;264.34;211.34;100
2024-04-18 03:30;106;21;74.34;-2000;71;115;-1900;-2074.34;-1687.66;-1741.66;-1794.66;312.34;258.34;205.34;100
2024-04-18 03:40;104;20;69.34;-2000;71;115;-1900;-2069.34;-1689.66;-1743.66;-1796.66;310.34;256.34;203.34;100
2024-04-18 03:50;101;20;63.34;-2000;71;115;-1900;-2063.34;-1695.66;-1749.66;-1802.66;304.34;250.34;197.34;100
2024-04-18 04:00;100;20;59.34;-2000;71;115;-1900;-2059.34;-1699.66;-1753.66;-1806.66;300.34;246.34;193.34;100
2024-04-18 04:10;100;19;54.34;-2000;71;115;-1900;-2054.34;-1701.66;-1755.66;-1808.66;298.34;244.34;191.34;100
2024-04-18 04:20;100;19;50.34;-2000;71;115;-1900;-2050.34;-1705.66;-1759.66;-1812.66;294.34;240.34;187.34;100
2024-04-18 04:30;99;19;47.34;-2000;71;115;-1900;-2047.34;-1708.66;-1762.66;-1815.66;291.34;237.34;184.34;100
2024-04-18 04:40;98;19;44.34;-2000;71;115;-1900;-2044.34;-1711.66;-1765.66;-1818.66;288.34;234.34;181.34;100
2024-04-18 04:50;96;18;41.34;-2000;71;115;-1900;-2041.34;-1711.66;-1765.66;-1818.66;288.34;234.34;181.34;100
2024-04-18 05:00;95;18;39.34;-2000;71;115;-1900;-2039.34;-1713.66;-1767.66;-1820.66;286.34;232.34;179.34;100
2024-04-18 05:10;93;18;38.34;-2000;71;115;-1900;-2038.34;-1714.66;-1768.66;-1821.66;285.34;231.34;178.34;100
2024-04-18 05:20;92;18;37.34;-2000;71;115;-1900;-2037.34;-1715.66;-1769.66;-1822.66;284.34;230.34;177.34;100
2024-04-18 05:30;93;17;37.34;-2000;71;115;-1900;-2037.34;-1712.66;-1766.66;-1819.66;287.34;233.34;180.34;100
2024-04-18 05:40;92;16;37.34;-2000;71;115;-1900;-2037.34;-1709.66;-1763.66;-1816.66;290.34;236.34;183.34;100
2024-04-18 05:50;91;17;38.34;-2000;71;115;-1900;-2038.34;-1711.66;-1765.66;-1818.66;288.34;234.34;181.34;100
2024-04-18 06:00;90;17;40.34;-2000;71;115;-1900;-2040.34;-1709.66;-1763.66;-1816.66;290.34;236.34;183.34;100
2024-04-18 06:10;88;17;41.34;-2000;71;115;-1900;-2041.34;-1708.66;-1762.66;-1815.66;291.34;237.34;184.34;100
2024-04-18 06:20;87;17;43.34;-2000;71;115;-1900;-2043.34;-1706.66;-1760.66;-1813.66;293.34;239.34;186.34;100
2024-04-18 06:30;86;18;44.34;-2000;71;115;-1900;-2044.34;-1708.66;-1762.66;-1815.66;291.34;237.34;184.34;100
2024-04-18 06:40;85;18;45.34;-2000;71;115;-1900;-2045.34;-1707.66;-1761.66;-1814.66;292.34;238.34;185.34;100
2024-04-18 06:50;85;17;45.34;-2000;71;115;-1900;-2045.34;-1704.66;-1758.66;-1811.66;295.34;241.34;188.34;100
2024-04-18 07:00;84;17;51.34;-2000;71;115;-1900;-2051.34;-1698.66;-1752.66;-1805.66;301.34;247.34;194.34;100
2024-04-18 07:10;84;16;51.34;-2000;71;115;-1900;-2051.34;-1695.66;-1749.66;-1802.66;304.34;250.34;197.34;100
2024-04-18 07:20;83;15;52.34;-2000;71;115;-1900;-2052.34;-1691.66;-1745.66;-1798.66;308.34;254.34;201.34;100
2024-04-18 07:30;83;15;53.34;-2000;71;115;-1900;-2053.34;-1690.66;-1744.66;-1797.66;309.34;255.34;202.34;100
2024-04-18 07:40;82;15;54.34;-2000;71;115;-1900;-2054.34;-1689.66;-1743.66;-1796.66;310.34;256.34;203.34;100
2024-04-18 07:50;81;15;54.34;-2000;71;115;-1900;-2054.34;-1689.66;-1743.66;-1796.66;310.34;256.34;203.34;100
2024-04-18 08:00;81;15;57.34;-2000;71;115;-1900;-2057.34;-1686.66;-1740.66;-1793.66;313.34;259.34;206.34;100
2024-04-18 08:10;82;15;59.34;-2000;71;115;-1900;-2059.34;-1684.66;-1738.66;-1791.66;315.34;261.34;208.34;100
2024-04-18 08:20;83;15;61.34;-2000;71;115;-1900;-2061.34;-1682.66;-1736.66;-1789.66;317.34;263.34;210.34;100
2024-04-18 08:30;83;16;64.34;-2000;71;115;-1900;-2064.34;-1682.66;-1736.66;-1789.66;317.34;263.34;210.34;100
2024-04-18 08:40;83;15;68.34;-2000;71;115;-1900;-2068.34;-1675.66;-1729.66;-1782.66;324.34;270.34;217.34;100
2024-04-18 08:50;83;14;72.34;-2000;71;115;-1900;-2072.34;-1668.66;-1722.66;-1775.66;331.34;277.34;224.34;100
2024-04-18 09:00;82;13;77.34;-2000;71;115;-1900;-2077.34;-1660.66;-1714.66;-1767.66;339.34;285.34;232.34;100
2024-04-18 09:10;82;13;83.34;-2000;71;115;-1900;-2083.34;-1654.66;-1708.66;-1761.66;345.34;291.34;238.34;100
2024-04-18 09:20;85;13;89.34;-2000;71;115;-1900;-2089.34;-1648.66;-1702.66;-1755.66;351.34;297.34;244.34;100
2024-04-18 09:30;87;14;95.34;-2000;71;115;-1900;-2095.34;-1645.66;-1699.66;-1752.66;354.34;300.34;247.34;100
2024-04-18 09:40;90;14;102.34;-2000;71;115;-1900;-2102.34;-1638.66;-1692.66;-1745.66;361.34;307.34;254.34;100
2024-04-18 09:50;92;15;109.34;-2000;71;115;-1900;-2109.34;-1634.66;-1688.66;-1741.66;365.34;311.34;258.34;100
2024-04-18 10:00;94;15;117.34;-2000;71;115;-1900;-2117.34;-1626.66;-1680.66;-1733.66;373.34;319.34;266.34;100
2024-04-18 10:10;95;14;125.34;-2000;71;115;-1900;-2125.34;-1615.66;-1669.66;-1722.66;384.34;330.34;277.34;100
2024-04-18 10:20;97;14;133.34;-2000;71;115;-1900;-2133.34;-1607.66;-1661.66;-1714.66;392.34;338.34;285.34;100
2024-04-18 10:30;100;14;142.34;-2000;71;115;-1900;-2142.34;-1598.66;-1652.66;-1705.66;401.34;347.34;294.34;100
2024-04-18 10:40;100;14;152.34;-2000;71;115;-1900;-2152.34;-1588.66;-1642.66;-1695.66;411.34;357.34;304.34;100
2024-04-18 10:50;99;15;162.34;-2000;71;115;-1900;-2162.34;-1581.66;-1635.66;-1688.66;418.34;364.34;311.34;100
2024-04-18 11:00;100;16;169.34;-2000;71;115;-1900;-2169.34;-1577.66;-1631.66;-1684.66;422.34;368.34;315.34;100
2024-04-18 11:10;102;17;177.34;-2000;71;115;-1900;-2177.34;-1572.66;-1626.66;-1679.66;427.34;373.34;320.34;100
2024-04-18 11:20;103;17;183.34;-2000;71;115;-1900;-2183.34;-1566.66;-1620.66;-1673.66;433.34;379.34;326.34;100
2024-04-18 11:30;105;17;188.34;-2000;71;115;-1900;-2188.34;-1561.66;-1615.66;-1668.66;438.34;384.34;331.34;100
2024-04-18 11:40;108;17;192.34;-2000;71;115;-1900;-2192.34;-1557.66;-1611.66;-1664.66;442.34;388.34;335.34;100
2024-04-18 11:50;110;17;194.34;-2000;71;115;-1900;-2194.34;-1555.66;-1609.66;-1662.66;444.34;390.34;337.34;100
2024-04-18 12:00;110;17;195.34;-2000;71;115;-1900;-2195.34;-1554.66;-1608.66;-1661.66;445.34;391.34;338.34;100
2024-04-18 12:10;109;17;195.34;-2000;71;115;-1900;-2195.34;-1554.66;-1608.66;-1661.66;445.34;391.34;338.34;100
2024-04-18 12:20;111;17;195.34;-2000;71;115;-1900;-2195.34;-1554.66;-1608.66;-1661.66;445.34;391.34;338.34;100
2024-04-18 12:30;112;18;194.34;-2000;71;115;-1900;-2194.34;-1558.66;-1612.66;-1665.66;441.34;387.34;334.34;100
2024-04-18 12:40;111;18;193.34;-2000;71;115;-1900;-2193.34;-1559.66;-1613.66;-1666.66;440.34;386.34;333.34;100
2024-04-18 12:50;111;17;192.34;-2000;71;115;-1900;-2192.34;-1557.66;-1611.66;-1664.66;442.34;388.34;335.34;100
2024-04-18 13:00;110;17;193.34;-2000;71;115;-1900;-2193.34;-1556.66;-1610.66;-1663.66;443.34;389.34;336.34;100
2024-04-18 13:10;108;16;191.34;-2000;71;115;-1900;-2191.34;-1555.66;-1609.66;-1662.66;444.34;390.34;337.34;100
2024-04-18 13:20;107;15;190.34;-2000;71;115;-1900;-2190.34;-1553.66;-1607.66;-1660.66;446.34;392.34;339.34;100
2024-04-18 13:30;106;14;188.34;-2000;71;115;-1900;-2188.34;-1552.66;-1606.66;-1659.66;447.34;393.34;340.34;100
2024-04-18 13:40;104;15;185.34;-2000;71;115;-1900;-2185.34;-1558.66;-1612.66;-1665.66;441.34;387.34;334.34;100
2024-04-18 13:50;103;15;181.34;-2000;71;115;-1900;-2181.34;-1562.66;-1616.66;-1669.66;437.34;383.34;330.34;100
2024-04-18 14:00;102;14;177.34;-2000;71;115;-1900;-2177.34;-1563.66;-1617.66;-1670.66;436.34;382.34;329.34;100
2024-04-18 14:10;101;14;173.34;-2000;71;115;-1900;-2173.34;-1567.66;-1621.66;-1674.66;432.34;378.34;325.34;100
2024-04-18 14:20;103;14;169.34;-2000;71;115;-1900;-2169.34;-1571.66;-1625.66;-1678.66;428.34;374.34;321.34;100
2024-04-18 14:30;103;13;164.34;-2000;71;115;-1900;-2164.34;-1573.66;-1627.66;-1680.66;426.34;372.34;319.34;100
2024-04-18 14:40;103;13;158.34;-2000;71;115;-1900;-2158.34;-1579.66;-1633.66;-1686.66;420.34;366.34;313.34;100
2024-04-18 14:50;102;13;153.34;-2000;71;115;-1900;-2153.34;-1584.66;-1638.66;-1691.66;415.34;361.34;308.34;100
2024-04-18 15:00;101;14;147.34;-2000;71;115;-1900;-2147.34;-1593.66;-1647.66;-1700.66;406.34;352.34;299.34;100
2024-04-18 15:10;99;14;141.34;-2000;71;115;-1900;-2141.34;-1599.66;-1653.66;-1706.66;400.34;346.34;293.34;100
2024-04-18 15:20;97;14;134.34;-2000;71;115;-1900;-2134.34;-1606.66;-1660.66;-1713.66;393.34;339.34;286.34;100
2024-04-18 15:30;97;13;126.34;-2000;71;115;-1900;-2126.34;-1611.66;-1665.66;-1718.66;388.34;334.34;281.34;100
2024-04-18 15:40;96;13;118.34;-2000;71;115;-1900;-2118.34;-1619.66;-1673.66;-1726.66;380.34;326.34;273.34;100
2024-04-18 15:50;95;12;111.34;-2000;71;115;-1900;-2111.34;-1623.66;-1677.66;-1730.66;376.34;322.34;269.34;100
2024-04-18 16:00;94;12;104.34;-2000;71;115;-1900;-2104.34;-1630.66;-1684.66;-1737.66;369.34;315.34;262.34;100
2024-04-18 16:10;94;12;96.34;-2000;71;115;-1900;-2096.34;-1638.66;-1692.66;-1745.66;361.34;307.34;254.34;100
2024-04-18 16:20;94;12;89.34;-2000;71;115;-1900;-2089.34;-1645.66;-1699.66;-1752.66;354.34;300.34;247.34;100
2024-04-18 16:30;93;12;82.34;-2000;71;115;-1900;-2082.34;-1652.66;-1706.66;-1759.66;347.34;293.34;240.34;100
2024-04-18 16:40;93;12;76.34;-2000;71;115;-1900;-2076.34;-1658.66;-1712.66;-1765.66;341.34;287.34;234.34;100
2024-04-18 16:50;93;11;70.34;-2000;71;115;-1900;-2070.34;-1661.66;-1715.66;-1768.66;338.34;284.34;231.34;100
2024-04-18 17:00;92;11;67.34;-2000;71;115;-1900;-2067.34;-1664.66;-1718.66;-1771.66;335.34;281.34;228.34;100
2024-04-18 17:10;90;10;61.34;-2000;71;115;-1900;-2061.34;-1667.66;-1721.66;-1774.66;332.34;278.34;225.34;100
2024-04-18 17:20;89;10;57.34;-2000;71;115;-1900;-2057.34;-1671.66;-1725.66;-1778.66;328.34;274.34;221.34;100
2024-04-18 17:30;88;10;54.34;-2000;71;115;-1900;-2054.34;-1674.66;-1728.66;-1781.66;325.34;271.34;218.34;100
2024-04-18 17:40;87;10;51.34;-2000;71;115;-1900;-2051.34;-1677.66;-1731.66;-1784.66;322.34;268.34;215.34;100
2024-04-18 17:50;86;10;51.34;-2000;71;115;-1900;-2051.34;-1677.66;-1731.66;-1784.66;322.34;268.34;215.34;100
2024-04-18 18:00;85;10;50.34;-2000;71;115;-1900;-2050.34;-1678.66;-1732.66;-1785.66;321.34;267.34;214.34;100
2024-04-18 18:10;84;10;50.34;-2000;71;115;-1900;-2050.34;-1678.66;-1732.66;-1785.66;321.34;267.34;214.34;100
2024-04-18 18:20;84;10;50.34;-2000;71;115;-1900;-2050.34;-1678.66;-1732.66;-1785.66;321.34;267.34;214.34;100
2024-04-18 18:30;83;11;51.34;-2000;71;115;-1900;-2051.34;-1680.66;-1734.66;-1787.66;319.34;265.34;212.34;100
2024-04-18 18:40;82;11;51.34;-2000;71;115;-1900;-2051.34;-1680.66;-1734.66;-1787.66;319.34;265.34;212.34;100
2024-04-18 18:50;83;11;52.34;-2000;71;115;-1900;-2052.34;-1679.66;-1733.66;-1786.66;320.34;266.34;213.34;100
2024-04-18 19:00;84;10;52.34;-2000;71;115;-1900;-2052.34;-1676.66;-1730.66;-1783.66;323.34;269.34;216.34;100
2024-04-18 19:10;84;10;52.34;-2000;71;115;-1900;-2052.34;-1676.66;-1730.66;-1783.66;323.34;269.34;216.34;100
2024-04-18 19:20;84;10;51.34;-2000;71;115;-1900;-2051.34;-1677.66;-1731.66;-1784.66;322.34;268.34;215.34;100
2024-04-18 19:30;84;10;51.34;-2000;71;115;-1900;-2051.34;-1677.66;-1731.66;-1784.66;322.34;268.34;215.34;100
2024-04-18 19:40;84;10;52.34;-2000;71;115;-1900;-2052.34;-1676.66;-1730.66;-1783.66;323.34;269.34;216.34;100
2024-04-18 19:50;83;10;52.34;-2000;71;115;-1900;-2052.34;-1676.66;-1730.66;-1783.66;323.34;269.34;216.34;100
2024-04-18 20:00;82;10;52.34;-2000;71;115;-1900;-2052.34;-1676.66;-1730.66;-1783.66;323.34;269.34;216.34;100
2024-04-18 20:10;82;11;52.34;-2000;71;115;-1900;-2052.34;-1679.66;-1733.66;-1786.66;320.34;266.34;213.34;100
2024-04-18 20:20;84;11;52.34;-2000;71;115;-1900;-2052.34;-1679.66;-1733.66;-1786.66;320.34;266.34;213.34;100
2024-04-18 20:30;85;11;53.34;-2000;71;115;-1900;-2053.34;-1678.66;-1732.66;-1785.66;321.34;267.34;214.34;100
2024-04-18 20:40;85;11;54.34;-2000;71;115;-1900;-2054.34;-1677.66;-1731.66;-1784.66;322.34;268.34;215.34;100
2024-04-18 20:50;85;11;55.34;-2000;71;115;-1900;-2055.34;-1676.66;-1730.66;-1783.66;323.34;269.34;216.34;100
2024-04-18 21:00;86;11;57.34;-2000;71;115;-1900;-2057.34;-1674.66;-1728.66;-1781.66;325.34;271.34;218.34;100
2024-04-18 21:10;87;11;59.34;-2000;71;115;-1900;-2059.34;-1672.66;-1726.66;-1779.66;327.34;273.34;220.34;100
2024-04-18 21:20;89;11;60.34;-2000;71;115;-1900;-2060.34;-1671.66;-1725.66;-1778.66;328.34;274.34;221.34;100
2024-04-18 21:30;92;12;63.34;-2000;71;115;-1900;-2063.34;-1671.66;-1725.66;-1778.66;328.34;274.34;221.34;100
2024-04-18 21:40;95;12;66.34;-2000;71;115;-1900;-2066.34;-1668.66;-1722.66;-1775.66;331.34;277.34;224.34;100
2024-04-18 21:50;97;12;68.34;-2000;71;115;-1900;-2068.34;-1666.66;-1720.66;-1773.66;333.34;279.34;226.34;100
2024-04-18 22:00;99;12;73.34;-2000;71;115;-1900;-2073.34;-1661.66;-1715.66;-1768.66;338.34;284.34;231.34;100
2024-04-18 22:10;103;12;78.34;-2000;71;115;-1900;-2078.34;-1656.66;-1710.66;-1763.66;343.34;289.34;236.34;100
2024-04-18 22:20;108;12;83.34;-2000;71;115;-1900;-2083.34;-1651.66;-1705.66;-1758.66;348.34;294.34;241.34;100
2024-04-18 22:30;111;12;89.34;-2000;71;115;-1900;-2089.34;-1645.66;-1699.66;-1752.66;354.34;300.34;247.34;100
2024-04-18 22:40;114;12;95.34;-2000;71;115;-1900;-2095.34;-1639.66;-1693.66;-1746.66;360.34;306.34;253.34;100
2024-04-18 22:50;117;12;102.34;-2000;71;115;-1900;-2102.34;-1632.66;-1686.66;-1739.66;367.34;313.34;260.34;100
2024-04-18 23:00;118;12;109.34;-2000;71;115;-1900;-2109.34;-1625.66;-1679.66;-1732.66;374.34;320.34;267.34;100
2024-04-18 23:10;120;13;118.34;-2000;71;115;-1900;-2118.34;-1619.66;-1673.66;-1726.66;380.34;326.34;273.34;100
2024-04-18 23:20;126;13;128.34;-2000;71;115;-1900;-2128.34;-1609.66;-1663.66;-1716.66;390.34;336.34;283.34;100
2024-04-18 23:30;129;14;136.34;-2000;71;115;-1900;-2136.34;-1604.66;-1658.66;-1711.66;395.34;341.34;288.34;100
2024-04-18 23:40;133;14;145.34;-2000;71;115;-1900;-2145.34;-1595.66;-1649.66;-1702.66;404.34;350.34;297.34;100
2024-04-18 23:50;138;14;152.34;-2000;71;115;-1900;-2152.34;-1588.66;-1642.66;-1695.66;411.34;357.34;304.34;100
2024-04-19 00:00;140;15;171.34;-2000;71;115;-1900;-2171.34;-1572.66;-1626.66;-1679.66;427.34;373.34;320.34;100
2024-04-19 00:10;140;15;177.34;-2000;71;115;-1900;-2177.34;-1566.66;-1620.66;-1673.66;433.34;379.34;326.34;100
2024-04-19 00:20;144;15;181.34;-2000;71;115;-1900;-2181.34;-1562.66;-1616.66;-1669.66;437.34;383.34;330.34;100
2024-04-19 00:30;149;16;184.34;-2000;71;115;-1900;-2184.34;-1562.66;-1616.66;-1669.66;437.34;383.34;330.34;100
2024-04-19 00:40;153;15;187.34;-2000;71;115;-1900;-2187.34;-1556.66;-1610.66;-1663.66;443.34;389.34;336.34;100
2024-04-19 00:50;160;15;189.34;-2000;71;115;-1900;-2189.34;-1554.66;-1608.66;-1661.66;445.34;391.34;338.34;100
2024-04-19 01:00;168;15;193.34;-2000;71;115;-1900;-2193.34;-1550.66;-1604.66;-1657.66;449.34;395.34;342.34;100
2024-04-19 01:10;172;15;192.34;-2000;71;115;-1900;-2192.34;-1551.66;-1605.66;-1658.66;448.34;394.34;341.34;100
2024-04-19 01:20;175;15;189.34;-2000;71;115;-1900;-2189.34;-1554.66;-1608.66;-1661.66;445.34;391.34;338.34;100
2024-04-19 01:30;180;15;187.34;-2000;71;115;-1900;-2187.34;-1556.66;-1610.66;-1663.66;443.34;389.34;336.34;100
2024-04-19 01:40;185;16;184.34;-2000;71;115;-1900;-2184.34;-1562.66;-1616.66;-1669.66;437.34;383.34;330.34;100
2024-04-19 01:50;191;16;183.34;-2000;71;115;-1900;-2183.34;-1563.66;-1617.66;-1670.66;436.34;382.34;329.34;100
2024-04-19 02:00;200;16;180.34;-2000;71;115;-1900;-2180.34;-1566.66;-1620.66;-1673.66;433.34;379.34;326.34;100
2024-04-19 02:10;204;16;177.34;-2000;71;115;-1900;-2177.34;-1569.66;-1623.66;-1676.66;430.34;376.34;323.34;100
2024-04-19 02:20;208;16;174.34;-2000;71;115;-1900;-2174.34;-1572.66;-1626.66;-1679.66;427.34;373.34;320.34;100
2024-04-19 02:30;211;15;171.34;-2000;71;115;-1900;-2171.34;-1572.66;-1626.66;-1679.66;427.34;373.34;320.34;100
2024-04-19 02:40;214;16;167.34;-2000;71;115;-1900;-2167.34;-1579.66;-1633.66;-1686.66;420.34;366.34;313.34;100
2024-04-19 02:50;221;16;163.34;-2000;71;115;-1900;-2163.34;-1583.66;-1637.66;-1690.66;416.34;362.34;309.34;100
2024-04-19 03:00;225;16;157.34;-2000;71;115;-1900;-2157.34;-1589.66;-1643.66;-1696.66;410.34;356.34;303.34;100
2024-04-19 03:10;229;16;151.34;-2000;71;115;-1900;-2151.34;-1595.66;-1649.66;-1702.66;404.34;350.34;297.34;100
2024-04-19 03:20;231;16;145.34;-2000;71;115;-1900;-2145.34;-1601.66;-1655.66;-1708.66;398.34;344.34;291.34;100
2024-04-19 03:30;231;16;140.34;-2000;71;115;-1900;-2140.34;-1606.66;-1660.66;-1713.66;393.34;339.34;286.34;100
2024-04-19 03:40;226;15;134.34;-2000;71;115;-1900;-2134.34;-1609.66;-1663.66;-1716.66;390.34;336.34;283.34;100
2024-04-19 03:50;228;16;128.34;-2000;71;115;-1900;-2128.34;-1618.66;-1672.66;-1725.66;381.34;327.34;274.34;100
2024-04-19 04:00;233;17;121.34;-2000;71;115;-1900;-2121.34;-1628.66;-1682.66;-1735.66;371.34;317.34;264.34;100
2024-04-19 04:10;238;17;116.34;-2000;71;115;-1900;-2116.34;-1633.66;-1687.66;-1740.66;366.34;312.34;259.34;100
2024-04-19 04:20;239;16;110.34;-2000;71;115;-1900;-2110.34;-1636.66;-1690.66;-1743.66;363.34;309.34;256.34;100
2024-04-19 04:30;233;16;104.34;-2000;71;115;-1900;-2104.34;-1642.66;-1696.66;-1749.66;357.34;303.34;250.34;100
2024-04-19 04:40;229;16;99.34;-2000;71;115;-1900;-2099.34;-1647.66;-1701.66;-1754.66;352.34;298.34;245.34;100
2024-04-19 04:50;229;15;93.34;-2000;71;115;-1900;-2093.34;-1650.66;-1704.66;-1757.66;349.34;295.34;242.34;100
2024-04-19 05:00;228;15;88.34;-2000;71;115;-1900;-2088.34;-1655.66;-1709.66;-1762.66;344.34;290.34;237.34;100
2024-04-19 05:10;230;15;84.34;-2000;71;115;-1900;-2084.34;-1659.66;-1713.66;-1766.66;340.34;286.34;233.34;100
2024-04-19 05:20;240;16;79.34;-2000;71;115;-1900;-2079.34;-1667.66;-1721.66;-1774.66;332.34;278.34;225.34;100
2024-04-19 05:30;246;16;76.34;-2000;71;115;-1900;-2076.34;-1670.66;-1724.66;-1777.66;329.34;275.34;222.34;100
2024-04-19 05:40;247;15;74.34;-2000;71;115;-1900;-2074.34;-1669.66;-1723.66;-1776.66;330.34;276.34;223.34;100
2024-04-19 05:50;247;16;72.34;-2000;71;115;-1900;-2072.34;-1674.66;-1728.66;-1781.66;325.34;271.34;218.34;100
2024-04-19 06:00;247;16;91.34;-2000;71;115;-1900;-2091.34;-1655.66;-1709.66;-1762.66;344.34;290.34;237.34;100
2024-04-19 06:10;244;16;91.34;-2000;71;115;-1900;-2091.34;-1655.66;-1709.66;-1762.66;344.34;290.34;237.34;100
2024-04-19 06:20;241;17;91.34;-2000;71;115;-1900;-2091.34;-1658.66;-1712.66;-1765.66;341.34;287.34;234.34;100
2024-04-19 06:30;240;17;92.34;-2000;71;115;-1900;-2092.34;-1657.66;-1711.66;-1764.66;342.34;288.34;235.34;100
2024-04-19 06:40;241;17;91.34;-2000;71;115;-1900;-2091.34;-1658.66;-1712.66;-1765.66;341.34;287.34;234.34;100
2024-04-19 06:50;242;18;93.34;-2000;71;115;-1900;-2093.34;-1659.66;-1713.66;-1766.66;340.34;286.34;233.34;100
2024-04-19 07:00;244;17;92.34;-2000;71;115;-1900;-2092.34;-1657.66;-1711.66;-1764.66;342.34;288.34;235.34;100
2024-04-19 07:10;243;17;92.34;-2000;71;115;-1900;-2092.34;-1657.66;-1711.66;-1764.66;342.34;288.34;235.34;100
2024-04-19 07:20;240;17;92.34;-2000;71;115;-1900;-2092.34;-1657.66;-1711.66;-1764.66;342.34;288.34;235.34;100
2024-04-19 07:30;237;18;93.34;-2000;71;115;-1900;-2093.34;-1659.66;-1713.66;-1766.66;340.34;286.34;233.34;100
2024-04-19 07:40;231;17;95.34;-2000;71;115;-1900;-2095.34;-1654.66;-1708.66;-1761.66;345.34;291.34;238.34;100
2024-04-19 07:50;229;17;97.34;-2000;71;115;-1900;-2097.34;-1652.66;-1706.66;-1759.66;347.34;293.34;240.34;100
2024-04-19 08:00;232;18;98.34;-2000;71;115;-1900;-2098.34;-1654.66;-1708.66;-1761.66;345.34;291.34;238.34;100
2024-04-19 08:10;235;17;100.34;-2000;71;115;-1900;-2100.34;-1649.66;-1703.66;-1756.66;350.34;296.34;243.34;100
2024-04-19 08:20;233;17;100.34;-2000;71;115;-1900;-2100.34;-1649.66;-1703.66;-1756.66;350.34;296.34;243.34;100
2024-04-19 08:30;231;17;98.34;-2000;71;115;-1900;-2098.34;-1651.66;-1705.66;-1758.66;348.34;294.34;241.34;100
2024-04-19 08:40;231;16;100.34;-2000;71;115;-1900;-2100.34;-1646.66;-1700.66;-1753.66;353.34;299.34;246.34;100
2024-04-19 08:50;231;16;100.34;-2000;71;115;-1900;-2100.34;-1646.66;-1700.66;-1753.66;353.34;299.34;246.34;100
2024-04-19 09:00;237;16;102.34;-2000;71;115;-1900;-2102.34;-1644.66;-1698.66;-1751.66;355.34;301.34;248.34;100
2024-04-19 09:10;245;16;104.34;-2000;71;115;-1900;-2104.34;-1642.66;-1696.66;-1749.66;357.34;303.34;250.34;100
2024-04-19 09:20;249;16;107.34;-2000;71;115;-1900;-2107.34;-1639.66;-1693.66;-1746.66;360.34;306.34;253.34;100
2024-04-19 09:30;252;16;111.34;-2000;71;115;-1900;-2111.34;-1635.66;-1689.66;-1742.66;364.34;310.34;257.34;100
2024-04-19 09:40;252;15;116.34;-2000;71;115;-1900;-2116.34;-1627.66;-1681.66;-1734.66;372.34;318.34;265.34;100
2024-04-19 09:50;248;14;121.34;-2000;71;115;-1900;-2121.34;-1619.66;-1673.66;-1726.66;380.34;326.34;273.34;100
2024-04-19 10:00;247;15;126.34;-2000;71;115;-1900;-2126.34;-1617.66;-1671.66;-1724.66;382.34;328.34;275.34;100
2024-04-19 10:10;251;15;132.34;-2000;71;115;-1900;-2132.34;-1611.66;-1665.66;-1718.66;388.34;334.34;281.34;100
2024-04-19 10:20;253;16;140.34;-2000;71;115;-1900;-2140.34;-1606.66;-1660.66;-1713.66;393.34;339.34;286.34;100
2024-04-19 10:30;254;16;148.34;-2000;71;115;-1900;-2148.34;-1598.66;-1652.66;-1705.66;401.34;347.34;294.34;100
2024-04-19 10:40;252;16;154.34;-2000;71;115;-1900;-2154.34;-1592.66;-1646.66;-1699.66;407.34;353.34;300.34;100
2024-04-19 10:50;252;16;163.34;-2000;71;115;-1900;-2163.34;-1583.66;-1637.66;-1690.66;416.34;362.34;309.34;100
2024-04-19 11:00;251;15;164.34;-2000;71;115;-1900;-2164.34;-1579.66;-1633.66;-1686.66;420.34;366.34;313.34;100
2024-04-19 11:10;251;15;174.34;-2000;71;115;-1900;-2174.34;-1569.66;-1623.66;-1676.66;430.34;376.34;323.34;100
2024-04-19 11:20;255;14;182.34;-2000;71;115;-1900;-2182.34;-1558.66;-1612.66;-1665.66;441.34;387.34;334.34;100
2024-04-19 11:30;260;15;191.34;-2000;71;115;-1900;-2191.34;-1552.66;-1606.66;-1659.66;447.34;393.34;340.34;100
2024-04-19 11:40;261;15;203.34;-2000;71;115;-1900;-2203.34;-1540.66;-1594.66;-1647.66;459.34;405.34;352.34;100
2024-04-19 11:50;261;15;216.34;-2000;71;115;-1900;-2216.34;-1527.66;-1581.66;-1634.66;472.34;418.34;365.34;100